Estación de Morza Norte

Ultimos registro cada 15 minutos 48
Estación Fecha / Hora Temperatura Humedad Lluvia Velocidad Dirección Radiación Presion
48 Morza Norte 09-05-2026 11:45 12,3 57 0 0,4 271 531 1019,1
47 Morza Norte 09-05-2026 11:30 11,9 99 0 0 327 524 1019,2
46 Morza Norte 09-05-2026 11:15 10,9 65 0 0 314 504 1019,3
45 Morza Norte 09-05-2026 11:00 9,5 65 0 0 131 531 1019,1
44 Morza Norte 09-05-2026 10:45 9,5 67 0 0 158 237 1019,2
43 Morza Norte 09-05-2026 10:30 9,1 99 0 0 75 214 1019,4
42 Morza Norte 09-05-2026 10:15 8,5 68 0 0 306 156 1019,5
41 Morza Norte 09-05-2026 10:00 8,2 69 0 0 261 128 1019,5
40 Morza Norte 09-05-2026 09:45 7,9 99 0 0 261 107 1019,4
39 Morza Norte 09-05-2026 09:30 7,6 70 0 0 261 84 1019,6
38 Morza Norte 09-05-2026 09:15 7,3 70 0 0 263 86 1019,6
37 Morza Norte 09-05-2026 09:00 7,1 70 0 0 256 44 1019,7
36 Morza Norte 09-05-2026 08:45 7,1 70 0 0 256 44 1019,7
35 Morza Norte 09-05-2026 08:30 7,2 99 0 0 239 30 1019,7
34 Morza Norte 09-05-2026 08:15 7,3 70 0 0 263 19 1019,5
33 Morza Norte 09-05-2026 08:00 7,4 70 0 0 264 16 1019,6
32 Morza Norte 09-05-2026 07:45 7,6 70 0 0 231 7 1019,5
31 Morza Norte 09-05-2026 07:30 7,7 99 0 0,4 232 0 1019,6
30 Morza Norte 09-05-2026 07:15 7,9 70 0 0 158 0 1019,7
29 Morza Norte 09-05-2026 07:00 8,2 69 0 0 261 0 1019,6
28 Morza Norte 09-05-2026 06:45 8,2 70 0 0 269 0 1019,7
27 Morza Norte 09-05-2026 06:30 8,3 99 0 0 269 0 1019,7
26 Morza Norte 09-05-2026 06:15 8,4 69 0 0 119 0 1019,8
25 Morza Norte 09-05-2026 06:00 8,7 69 0 0 118 0 1019,9
24 Morza Norte 09-05-2026 05:45 8,7 69 0 0 118 0 1019,8
23 Morza Norte 09-05-2026 05:30 8,7 99 0 0 118 0 1019,8
22 Morza Norte 09-05-2026 05:15 8,6 70 0 0 124 0 1019,8
21 Morza Norte 09-05-2026 05:00 8,6 70 0 0 116 0 1019,7
20 Morza Norte 09-05-2026 04:45 8,6 70 0 0 104 0 1019,9
19 Morza Norte 09-05-2026 04:30 8,4 99 0 0 104 0 1019,8
18 Morza Norte 09-05-2026 04:15 8,4 70 0 0 104 0 1020
17 Morza Norte 09-05-2026 04:00 8,3 70 0 0 104 0 1020
16 Morza Norte 09-05-2026 03:45 8,3 70 0 0 104 0 1020,1
15 Morza Norte 09-05-2026 03:30 8,4 71 0 0 104 0 1020,4
14 Morza Norte 09-05-2026 03:15 8,4 71 0 0 104 0 1020,5
13 Morza Norte 09-05-2026 03:00 8,3 71 0 0 104 0 1020,5
12 Morza Norte 09-05-2026 02:45 8,3 71 0 0 104 0 1020,5
11 Morza Norte 09-05-2026 02:30 8,2 99 0 0 104 0 1020,5
10 Morza Norte 09-05-2026 02:15 8,2 71 0 0 104 0 1020,7
9 Morza Norte 09-05-2026 02:00 8,1 71 0 0 104 0 1020,8
8 Morza Norte 09-05-2026 01:45 8 71 0 0 104 0 1020,9
7 Morza Norte 09-05-2026 01:30 8 99 0 0 101 0 1020,8
6 Morza Norte 09-05-2026 01:15 7,9 71 0 0 100 0 1020,9
5 Morza Norte 09-05-2026 01:00 7,7 71 0 0 99 0 1020,9
4 Morza Norte 09-05-2026 00:45 7,7 71 0 0 111 0 1020,8
3 Morza Norte 09-05-2026 00:30 7,7 99 0 0 111 0 1020,9
2 Morza Norte 09-05-2026 00:15 7,7 71 0 0 110 0 1020,7
1 Morza Norte 09-05-2026 00:00 7,9 71 0 0 116 0 1020,8